| time (UTC) | temp F | wind direction | speed MPH | gust MPH | rain 1hr in | rain 24hr in | rain mn in | humidity % | barometer mb |
| 20260906220011 | 80 | 313 | 1.0 | 0.0 | 0.00 | 0.00 | 0.96 | 93 | 1010.0 |
| 20260906214515 | 78 | 279 | 1.0 | 0.0 | 0.00 | 0.00 | 0.96 | 95 | 1010.1 |
| 20260906213013 | 77 | 300 | 0.0 | 0.0 | 0.00 | 0.00 | 0.96 | 95 | 1010.5 |
| 20260906211512 | 76 | 281 | 1.0 | 0.0 | 0.00 | 0.00 | 0.96 | 96 | 1011.0 |
| 20260906210009 | 75 | 310 | 0.0 | 0.0 | 0.00 | 0.00 | 0.96 | 94 | 1011.1 |
| 20260906204516 | 74 | 304 | 0.0 | 0.0 | 0.00 | 0.00 | 0.96 | 95 | 1011.2 |
| 20260906203009 | 74 | 338 | 0.0 | 0.0 | 0.00 | 0.00 | 0.96 | 94 | 1011.5 |
| 20260906201505 | 74 | 304 | 1.0 | 0.0 | 0.00 | 0.00 | 0.96 | 93 | 1011.6 |
| 20260906200005 | 75 | 263 | 1.0 | 0.0 | 0.00 | 0.00 | 0.95 | 93 | 1011.7 |
| 20260906194503 | 75 | 260 | 2.0 | 0.0 | 0.00 | 0.00 | 0.94 | 93 | 1012.2 |
| 20260906193001 | 76 | 273 | 6.0 | 0.0 | 0.00 | 0.00 | 0.91 | 92 | 1012.6 |
| 20260906191605 | 77 | 275 | 2.0 | 0.0 | 0.00 | 0.00 | 0.57 | 92 | 1014.1 |
| 20260906190057 | 80 | 349 | 11.0 | 0.0 | 0.00 | 0.00 | 0.33 | 82 | 1013.0 |
| 20260906184555 | 95 | 329 | 3.0 | 0.0 | 0.00 | 0.00 | 0.00 | 63 | 1012.0 |
| 20260906183053 | 96 | 30 | 2.0 | 0.0 | 0.00 | 0.00 | 0.00 | 53 | 1012.0 |
| 20260906181624 | 93 | 109 | 3.0 | 0.0 | 0.00 | 0.00 | 0.00 | 58 | 1012.0 |
| 20260906180048 | 92 | 103 | 4.0 | 0.0 | 0.00 | 0.00 | 0.00 | 60 | 1012.3 |
| 20260906174551 | 93 | 77 | 4.0 | 0.0 | 0.00 | 0.00 | 0.00 | 58 | 1012.3 |
| 20260906173046 | 92 | 22 | 3.0 | 0.0 | 0.00 | 0.00 | 0.00 | 56 | 1012.2 |
| 20260906171557 | 92 | 73 | 4.0 | 0.0 | 0.00 | 0.00 | 0.00 | 63 | 1012.1 |
| 20260906170048 | 91 | 104 | 4.0 | 0.0 | 0.00 | 0.00 | 0.00 | 61 | 1012.4 |
| 20260906164543 | 90 | 5 | 5.0 | 0.0 | 0.00 | 0.00 | 0.00 | 67 | 1012.3 |
| 20260906163040 | 91 | 133 | 3.0 | 0.0 | 0.00 | 0.00 | 0.00 | 65 | 1012.4 |
| 20260906161539 | 91 | 101 | 2.0 | 0.0 | 0.00 | 0.00 | 0.00 | 66 | 1012.5 |
| 20260906160034 | 88 | 330 | 2.0 | 0.0 | 0.00 | 0.00 | 0.00 | 72 | 1012.8 |
| 20260906154540 | 87 | 74 | 5.0 | 0.0 | 0.00 | 0.00 | 0.00 | 75 | 1013.1 |
| 20260906153034 | 86 | 65 | 5.0 | 0.0 | 0.00 | 0.00 | 0.00 | 77 | 1013.2 |
| 20260906151530 | 86 | 150 | 4.0 | 0.0 | 0.00 | 0.00 | 0.00 | 77 | 1013.3 |
| 20260906150029 | 86 | 122 | 4.0 | 0.0 | 0.00 | 0.00 | 0.00 | 77 | 1013.3 |
| 20260906144527 | 86 | 102 | 3.0 | 0.0 | 0.00 | 0.00 | 0.00 | 79 | 1013.4 |
| 20260906143024 | 85 | 109 | 3.0 | 0.0 | 0.00 | 0.00 | 0.00 | 78 | 1013.4 |
| 20260906141529 | 84 | 117 | 2.0 | 0.0 | 0.00 | 0.00 | 0.00 | 80 | 1013.4 |
| 20260906140016 | 83 | 104 | 4.0 | 0.0 | 0.00 | 0.00 | 0.00 | 81 | 1013.4 |
| 20260906134519 | 82 | 80 | 3.0 | 0.0 | 0.00 | 0.00 | 0.00 | 84 | 1013.3 |
| 20260906133008 | 80 | 111 | 3.0 | 0.0 | 0.00 | 0.00 | 0.00 | 88 | 1013.2 |
| 20260906131510 | 79 | 144 | 0.0 | 0.0 | 0.00 | 0.00 | 0.00 | 91 | 1013.3 |
| 20260906130003 | 79 | 131 | 0.0 | 0.0 | 0.00 | 0.00 | 0.00 | 91 | 1013.2 |
| 20260906124501 | 79 | 101 | 0.0 | 0.0 | 0.00 | 0.00 | 0.00 | 93 | 1013.2 |
| 20260906123100 | 78 | 68 | 1.0 | 0.0 | 0.00 | 0.00 | 0.00 | 94 | 1013.0 |
| 20260906121558 | 78 | 51 | 1.0 | 0.0 | 0.00 | 0.00 | 0.00 | 95 | 1013.0 |
| 20260906120058 | 77 | 72 | 0.0 | 0.0 | 0.00 | 0.00 | 0.00 | 96 | 1012.8 |
| 20260906114600 | 77 | 72 | 0.0 | 0.0 | 0.00 | 0.00 | 0.00 | 96 | 1012.6 |
| 20260906113055 | 77 | 91 | 0.0 | 0.0 | 0.00 | 0.00 | 0.00 | 96 | 1012.4 |
| 20260906111558 | 76 | 157 | 0.0 | 0.0 | 0.00 | 0.00 | 0.00 | 96 | 1012.3 |
| 20260906110054 | 76 | 27 | 0.0 | 0.0 | 0.00 | 0.00 | 0.00 | 96 | 1011.8 |
| 20260906104601 | 76 | 30 | 1.0 | 0.0 | 0.00 | 0.00 | 0.00 | 96 | 1011.4 |
| 20260906103054 | 76 | 146 | 0.0 | 0.0 | 0.00 | 0.00 | 0.00 | 96 | 1011.3 |
| 20260906101555 | 76 | 146 | 0.0 | 0.0 | 0.00 | 0.00 | 0.00 | 96 | 1011.0 |
| 20260906100052 | 76 | 146 | 1.0 | 0.0 | 0.00 | 0.00 | 0.00 | 96 | 1011.1 |
| 20260906094607 | 76 | 215 | 0.0 | 0.0 | 0.00 | 0.00 | 0.00 | 96 | 1010.6 |
| 20260906093124 | 76 | 201 | 0.0 | 0.0 | 0.00 | 0.00 | 0.00 | 96 | 1010.6 |
| 20260906091559 | 76 | 161 | 0.0 | 0.0 | 0.00 | 0.00 | 0.00 | 96 | 1010.8 |
| 20260906090051 | 76 | 194 | 1.0 | 0.0 | 0.00 | 0.00 | 0.00 | 96 | 1010.8 |
| 20260906084550 | 76 | 155 | 1.0 | 0.0 | 0.00 | 0.00 | 0.00 | 95 | 1010.7 |
| 20260906083050 | 76 | 163 | 0.0 | 0.0 | 0.00 | 0.00 | 0.00 | 95 | 1010.7 |
| 20260906081549 | 76 | 163 | 0.0 | 0.0 | 0.00 | 0.00 | 0.00 | 95 | 1010.6 |
| 20260906080047 | 76 | 163 | 0.0 | 0.0 | 0.00 | 0.00 | 0.00 | 95 | 1010.7 |
| 20260906074545 | 76 | 163 | 0.0 | 0.0 | 0.00 | 0.00 | 0.00 | 95 | 1010.9 |
| 20260906073043 | 76 | 5 | 0.0 | 0.0 | 0.00 | 0.00 | 0.00 | 94 | 1011.1 |
| 20260906071542 | 76 | 9 | 0.0 | 0.0 | 0.00 | 0.00 | 0.00 | 94 | 1011.2 |
| 20260906070041 | 77 | 88 | 1.0 | 0.0 | 0.00 | 0.00 | 0.00 | 94 | 1011.2 |
| 20260906064540 | 77 | 67 | 2.0 | 0.0 | 0.00 | 0.00 | 0.00 | 94 | 1011.3 |
| 20260906063041 | 77 | 65 | 0.0 | 0.0 | 0.00 | 0.00 | 0.00 | 95 | 1011.7 |
| 20260906061538 | 77 | 342 | 0.0 | 0.0 | 0.00 | 0.00 | 0.00 | 95 | 1011.9 |
| 20260906060037 | 77 | 57 | 0.0 | 0.0 | 0.00 | 0.00 | 0.00 | 95 | 1012.3 |
| 20260906054541 | 77 | 95 | 4.0 | 0.0 | 0.00 | 0.00 | 0.00 | 95 | 1012.6 |
| 20260906053039 | 77 | 134 | 2.0 | 0.0 | 0.00 | 0.00 | 0.00 | 95 | 1012.6 |
| 20260906051548 | 77 | 197 | 4.0 | 0.0 | 0.00 | 0.00 | 0.00 | 95 | 1012.5 |
| 20260906050035 | 78 | 120 | 2.0 | 0.0 | 0.00 | 0.00 | 0.00 | 95 | 1012.2 |
| 20260906044533 | 77 | 263 | 0.0 | 0.0 | 0.00 | 0.00 | 0.00 | 95 | 1011.6 |
| 20260906043030 | 77 | 282 | 0.0 | 0.0 | 0.00 | 0.00 | 0.00 | 95 | 1012.0 |
| 20260906041527 | 77 | 328 | 0.0 | 0.0 | 0.00 | 0.00 | 0.00 | 94 | 1012.4 |
| 20260906040030 | 77 | 347 | 0.0 | 0.0 | 0.00 | 0.00 | 0.00 | 94 | 1012.6 |
| 20260906034522 | 77 | 80 | 1.0 | 0.0 | 0.00 | 0.00 | 0.00 | 94 | 1012.9 |
| 20260906033035 | 77 | 65 | 2.0 | 0.0 | 0.00 | 0.00 | 0.34 | 94 | 1013.0 |
| 20260906031525 | 77 | 59 | 3.0 | 0.0 | 0.00 | 0.00 | 0.34 | 94 | 1013.4 |
| 20260906030020 | 76 | 21 | 2.0 | 0.0 | 0.00 | 0.00 | 0.34 | 93 | 1013.9 |
| 20260906024538 | 77 | 340 | 2.0 | 0.0 | 0.00 | 0.00 | 0.34 | 93 | 1014.2 |
| 20260906023025 | 77 | 73 | 2.0 | 0.0 | 0.00 | 0.00 | 0.34 | 94 | 1014.2 |
| 20260906021519 | 77 | 46 | 2.0 | 0.0 | 0.00 | 0.00 | 0.34 | 94 | 1014.4 |
| 20260906020019 | 77 | 62 | 1.0 | 0.0 | 0.00 | 0.00 | 0.34 | 94 | 1014.5 |
| 20260906014530 | 78 | 61 | 1.0 | 0.0 | 0.00 | 0.00 | 0.34 | 93 | 1014.2 |
| 20260906013036 | 77 | 132 | 2.0 | 0.0 | 0.00 | 0.00 | 0.34 | 94 | 1013.9 |
| 20260906011518 | 77 | 126 | 0.0 | 0.0 | 0.00 | 0.00 | 0.34 | 92 | 1013.6 |
| 20260906010022 | 77 | 275 | 1.0 | 0.0 | 0.00 | 0.00 | 0.33 | 93 | 1013.1 |
| 20260906004519 | 77 | 105 | 1.0 | 0.0 | 0.00 | 0.00 | 0.33 | 93 | 1013.2 |
| 20260906003016 | 77 | 103 | 6.0 | 0.0 | 0.00 | 0.00 | 0.32 | 93 | 1013.2 |
| 20260906001521 | 77 | 132 | 1.0 | 0.0 | 0.00 | 0.00 | 0.31 | 93 | 1013.0 |
| 20260906000015 | 77 | 53 | 0.0 | 0.0 | 0.00 | 0.00 | 0.30 | 93 | 1012.7 |
| 20260905234515 | 77 | 100 | 1.0 | 0.0 | 0.00 | 0.00 | 0.28 | 92 | 1012.9 |
| 20260905233015 | 77 | 252 | 1.0 | 0.0 | 0.00 | 0.00 | 0.28 | 92 | 1013.0 |
| 20260905231514 | 77 | 202 | 2.0 | 0.0 | 0.00 | 0.00 | 0.26 | 91 | 1013.1 |
| 20260905230013 | 78 | 120 | 3.0 | 0.0 | 0.00 | 0.00 | 0.26 | 89 | 1013.3 |
| 20260905224513 | 77 | 148 | 1.0 | 0.0 | 0.00 | 0.00 | 0.26 | 92 | 1013.4 |
| 20260905223014 | 77 | 119 | 2.0 | 0.0 | 0.00 | 0.00 | 0.26 | 92 | 1013.2 |
| 20260905221512 | 77 | 281 | 3.0 | 0.0 | 0.00 | 0.00 | 0.26 | 91 | 1013.0 |